Tracking 35334 objects as of 12-Sep-2026
HD Live streaming from Space Station
objects crossing your sky now

DELTA 1 DEB

Track DELTA 1 DEB now!
10-day predictions


NORAD ID: 7170
Int'l Code: 1973-086EJ
Launch date: November 6, 1973
Source: United States (US)
Launch site: AIR FORCE WESTERN TEST RANGE (AFWTR)

Note: This is SATELLITE DEBRIS
Your satellite tracking list
Your tracking list is empty




NASA's NSSDC Master Catalog

Two Line Element Set (TLE):
1 07170U 73086EJ  26255.13566390  .00000637  00000-0  20255-2 0  9994
2 07170 101.6514 315.2245 0088656 314.1032  73.2260 13.07240529475520
Source of the keplerian elements: AFSPC